Weather History for KAUH - December, 2013

Change the Weather History Date:

Tuesday, December 10, 2013

  Actual Average Record
Temperature  
Mean Temperature 18 °F -  
Max Temperature 30 °F 38 °F 67 °F (1993)
Min Temperature 7 °F 17 °F -7 °F (1977)
Degree Days  
Heating Degree Days 46    
Moisture  
Dew Point 14 °F    
Average Humidity 72    
Maximum Humidity 92    
Minimum Humidity 60    
Precipitation  
Precipitation 0.00 in - - ()
Sea Level Pressure  
Sea Level Pressure 30.12 in    
Wind  
Wind Speed 11 mph (WSW)    
Max Wind Speed 25 mph    
Max Gust Speed 30 mph    
Visibility 10 miles    
Events Snow    
Averages and records for this station are not official NWS values.
T = Trace of Precipitation, MM = Missing Value Source: NWS Daily Summary

Daily Weather History Graph

Daily Weather History Graph

Search for Another Location

Airport or City:

Trip Planner

Search our weather history database for the weather conditions in past years. The results will help you decide how hot, cold, wet, or windy it might be!

Date:

Astronomy

Dec. 10, 2013 Rise Set
Actual Time 7:45 AM CST 5:03 PM CST
Civil Twilight 7:14 AM CST 5:34 PM CST
Nautical Twilight 6:40 AM CST 6:09 PM CST
Astronomical Twilight 6:07 AM CST 6:42 PM CST
Moon 1:08 PM CST (12/10) 1:03 AM CST (12/10)
Length of Visible Light 10h 20m
Length of Day
9h 18m
Waxing Gibbous, 62% of the Moon is Illuminated
Dec 10
Waxing Gibbous
Dec 17
Full
Dec 25
Last Quarter
Jan 1
New
Jan 7
First Quarter

Hourly Weather History & Observations

Time (CST) Temp. Windchill Dew Point Humidity Pressure Visibility Wind Dir Wind Speed Gust Speed Precip Events Conditions
12:15 AM 16.3 °F 2.1 °F 8.1 °F 70% 30.06 in 10.0 mi WSW 13.8 mph - N/A   Clear
12:35 AM 15.6 °F 2.5 °F 7.7 °F 71% 30.06 in 10.0 mi WSW 11.5 mph - N/A   Clear
12:55 AM 16.5 °F 1.8 °F 8.4 °F 70% 30.06 in 10.0 mi West 15.0 mph - N/A   Clear
1:15 AM 18.5 °F 3.8 °F 9.5 °F 68% 30.06 in 10.0 mi West 16.1 mph - N/A   Clear
1:35 AM 19.0 °F 4.5 °F 9.5 °F 66% 30.06 in 10.0 mi WSW 16.1 mph - N/A   Clear
1:55 AM 18.9 °F 5.3 °F 9.5 °F 67% 30.06 in 10.0 mi WSW 13.8 mph - N/A   Clear
2:15 AM 18.9 °F 4.8 °F 9.5 °F 67% 30.06 in 10.0 mi West 15.0 mph - N/A   Clear
2:35 AM 17.6 °F 3.2 °F 9.1 °F 69% 30.06 in 10.0 mi WSW 15.0 mph - N/A   Clear
2:55 AM 17.6 °F 3.2 °F 9.0 °F 69% 30.07 in 10.0 mi WSW 15.0 mph - N/A   Clear
3:15 AM 17.1 °F 3.6 °F 8.6 °F 69% 30.08 in 10.0 mi WSW 12.7 mph - N/A   Clear
3:35 AM 16.5 °F 4.3 °F 8.1 °F 69% 30.08 in 10.0 mi WSW 10.4 mph - N/A   Clear
4:35 AM 13.1 °F 0.9 °F 6.4 °F 75% 30.11 in 10.0 mi West 9.2 mph - N/A   Clear
4:55 AM 12.7 °F -0.4 °F 6.3 °F 75% 30.12 in 10.0 mi WSW 10.4 mph - N/A   Scattered Clouds
5:15 AM 14.5 °F 2.7 °F 8.1 °F 75% 30.13 in 10.0 mi West 9.2 mph - N/A   Overcast
5:35 AM 14.0 °F 3.9 °F 7.0 °F 74% 30.12 in 10.0 mi WNW 6.9 mph - N/A   Mostly Cloudy
5:55 AM 11.1 °F 0.4 °F 5.2 °F 77% 30.11 in 10.0 mi WNW 6.9 mph - N/A   Scattered Clouds
6:15 AM 10.4 °F -2.4 °F 4.6 °F 78% 30.12 in 10.0 mi West 9.2 mph - N/A   Clear
6:35 AM 10.8 °F -2.8 °F 5.0 °F 78% 30.13 in 10.0 mi West 10.4 mph - N/A   Clear
6:55 AM 9.0 °F -3.2 °F 4.1 °F 81% 30.13 in 10.0 mi West 8.1 mph - N/A   Clear
7:15 AM 9.5 °F -3.5 °F 4.3 °F 79% 30.13 in 10.0 mi West 9.2 mph - N/A   Clear
7:35 AM 9.5 °F -4.4 °F 4.5 °F 80% 30.15 in 10.0 mi West 10.4 mph - N/A   Clear
7:55 AM 7.3 °F -5.2 °F 2.3 °F 80% 30.15 in 10.0 mi West 8.1 mph - N/A   Clear
8:15 AM 9.3 °F -1.7 °F 3.9 °F 79% 30.16 in 10.0 mi WSW 6.9 mph - N/A   Clear
8:35 AM 11.3 °F -1.3 °F 5.5 °F 78% 30.18 in 10.0 mi SW 9.2 mph - N/A   Clear
8:55 AM 11.7 °F 0.0 °F 5.5 °F 76% 30.18 in 10.0 mi SW 8.1 mph - N/A   Clear
9:15 AM 13.5 °F 2.2 °F 6.8 °F 75% 30.19 in 10.0 mi SW 8.1 mph - N/A   Clear
9:35 AM 15.1 °F 4.2 °F 8.1 °F 74% 30.20 in 10.0 mi SSW 8.1 mph - N/A   Clear
9:55 AM 16.9 °F 8.5 °F 9.5 °F 73% 30.19 in 10.0 mi WSW 5.8 mph - N/A   Clear
10:15 AM 18.3 °F 11.5 °F 10.4 °F 71% 30.19 in 10.0 mi West 4.6 mph - N/A   Clear
10:35 AM 19.9 °F 13.4 °F 11.8 °F 71% 30.18 in 10.0 mi SW 4.6 mph - N/A   Clear
10:55 AM 21.2 °F - 12.7 °F 70% 30.17 in 10.0 mi Calm Calm - N/A   Clear
11:15 AM 23.5 °F 17.6 °F 14.7 °F 69% 30.17 in 10.0 mi SW 4.6 mph - N/A   Clear
11:35 AM 25.7 °F 19.0 °F 15.4 °F 65% 30.16 in 10.0 mi SSW 5.8 mph - N/A   Clear
11:55 AM 26.2 °F 19.6 °F 15.4 °F 64% 30.15 in 10.0 mi South 5.8 mph - N/A   Clear
12:15 PM 27.5 °F 22.2 °F 16.2 °F 62% 30.13 in 10.0 mi South 4.6 mph - N/A   Clear
12:35 PM 28.4 °F 21.2 °F 16.0 °F 60% 30.12 in 10.0 mi South 6.9 mph - N/A   Clear
12:55 PM 28.4 °F 18.5 °F 16.2 °F 60% 30.12 in 10.0 mi SSW 11.5 mph - N/A   Clear
1:15 PM 28.8 °F 19.0 °F 17.6 °F 63% 30.11 in 10.0 mi SSW 11.5 mph - N/A   Clear
1:35 PM 28.2 °F 18.9 °F 17.6 °F 64% 30.10 in 10.0 mi South 10.4 mph - N/A   Clear
1:55 PM 27.9 °F 19.8 °F 17.6 °F 65% 30.08 in 10.0 mi South 8.1 mph - N/A   Clear
2:15 PM 27.7 °F 19.6 °F 17.2 °F 65% 30.08 in 10.0 mi South 8.1 mph - N/A   Clear
2:35 PM 28.9 °F 21.1 °F 18.0 °F 64% 30.06 in 10.0 mi South 8.1 mph - N/A   Clear
2:55 PM 29.5 °F 19.9 °F 18.7 °F 64% 30.06 in 10.0 mi SSW 11.5 mph - N/A   Clear
3:15 PM 30.0 °F 20.5 °F 18.7 °F 63% 30.05 in 10.0 mi SSW 11.5 mph - N/A   Clear
3:35 PM 30.0 °F 21.7 °F 18.5 °F 62% 30.05 in 10.0 mi South 9.2 mph - N/A   Mostly Cloudy
3:55 PM 29.8 °F 20.3 °F 18.3 °F 62% 30.05 in 10.0 mi SSW 11.5 mph - N/A   Overcast
4:15 PM 28.8 °F 19.5 °F 18.0 °F 64% 30.07 in 10.0 mi SSW 10.4 mph - N/A   Overcast
4:35 PM 28.2 °F 18.9 °F 18.0 °F 65% 30.06 in 10.0 mi SSW 10.4 mph 16.1 mph N/A   Scattered Clouds
4:55 PM 28.0 °F 20.0 °F 18.7 °F 68% 30.07 in 10.0 mi SSW 8.1 mph - N/A   Mostly Cloudy
5:15 PM 27.5 °F 18.6 °F 19.6 °F 72% 30.07 in 10.0 mi SSW 9.2 mph - N/A   Overcast
5:35 PM 27.3 °F 17.7 °F 19.8 °F 73% 30.08 in 10.0 mi SSW 10.4 mph - N/A   Overcast
5:55 PM 27.1 °F 18.2 °F 19.4 °F 73% 30.09 in 10.0 mi SSW 9.2 mph - N/A   Overcast
6:15 PM 27.0 °F 18.0 °F 19.4 °F 73% 30.09 in 10.0 mi SSW 9.2 mph - N/A   Overcast
6:35 PM 26.6 °F 17.5 °F 19.4 °F 74% 30.10 in 10.0 mi SSW 9.2 mph - N/A   Overcast
6:55 PM 27.0 °F 18.0 °F 18.7 °F 71% 30.10 in 10.0 mi SW 9.2 mph - N/A   Overcast
7:15 PM 27.1 °F 18.2 °F 18.3 °F 69% 30.10 in 10.0 mi SW 9.2 mph - N/A   Overcast
7:35 PM 25.5 °F 18.7 °F 16.7 °F 69% 30.10 in 10.0 mi SW 5.8 mph - N/A   Mostly Cloudy
7:55 PM 24.8 °F 17.9 °F 17.1 °F 72% 30.10 in 10.0 mi SW 5.8 mph - N/A   Scattered Clouds
8:15 PM 24.8 °F 16.9 °F 17.8 °F 75% 30.11 in 10.0 mi WSW 6.9 mph - N/A   Scattered Clouds
8:35 PM 24.8 °F 17.9 °F 18.3 °F 76% 30.11 in 10.0 mi SW 5.8 mph - N/A   Overcast
8:55 PM 24.8 °F 17.9 °F 18.5 °F 77% 30.12 in 10.0 mi WSW 5.8 mph - N/A   Overcast
9:15 PM 25.2 °F 18.3 °F 19.2 °F 78% 30.13 in 10.0 mi WSW 5.8 mph - N/A   Overcast
9:35 PM 26.6 °F 19.1 °F 19.4 °F 74% 30.15 in 10.0 mi WNW 6.9 mph - N/A   Overcast
9:55 PM 28.2 °F 17.2 °F 20.3 °F 72% 30.18 in 10.0 mi NNW 13.8 mph - N/A   Overcast
10:15 PM 28.0 °F 16.5 °F 22.6 °F 80% 30.19 in 7.0 mi NNW 15.0 mph - N/A Snow Light Snow
10:35 PM 29.7 °F 20.1 °F 27.5 °F 92% 30.20 in 4.0 mi NNW 11.5 mph - N/A Snow Light Snow
10:55 PM 29.7 °F 21.3 °F 27.5 °F 92% 30.21 in 10.0 mi NNW 9.2 mph - N/A   Overcast
11:15 PM 29.8 °F 18.9 °F 26.2 °F 86% 30.23 in 10.0 mi NNW 15.0 mph - N/A   Overcast
11:35 PM 29.3 °F 15.0 °F 21.9 °F 74% 30.25 in 10.0 mi North 25.3 mph 29.9 mph N/A   Overcast
11:55 PM 28.2 °F 13.6 °F 21.0 °F 74% 30.27 in 10.0 mi North 25.3 mph 28.8 mph N/A   Overcast